www.pogodaiklimat.ru

Погода и климат >> Архив погоды >> Узбекистан >> Коканд


ПОГОДА в Коканде

  • Прогноз погоды в Коканде
  • Монитор погоды в Коканде

АРХИВ ПОГОДЫ в Коканде

Время (UTC), дата Ветер
(напр.,м/с)
 
Видим.   Явления Облачность Т
(С)
Тd
(С)
f
(%)
Тe
(С)
Тes
(С)
Комфортность P
(гПа)
Po
(гПа)
Тmin
(С)
Tmax
(С)
R
(мм)
R24
(мм)
S
(см)
00 11.06 В 3 10 км 10/5 1500 м
[Cb cap Ac As]
+14.7 +11.8 83 +14 +14 1018.7 971.7
03 11.06 СВ 3 10 км 9/3 1500 м
[Cb cap Ac und Ci ing]
+16.5 +11.8 74 +16 +19 1019.0 972.4
06 11.06 СВ 1 10 км 9/0
[Ac und Ci ing]
+20.5 +11.5 56 +23 +37 комфорт 1017.8 971.8 +14.7
09 11.06 СВ 1 10 км 9/0
[Ac und Ci ing]
+24.4 +10.6 42 +26 +37 жарко 1015.5 970.2
12 11.06 СЗ 2 10 км 9/0
[Ci ing]
+25.1 +6.7 31 +25 +29 комфорт 1014.8 969.5
15 11.06 СВ 2 10 км гроза, ливневой дождь 10/10 1500 м
[Cb cap]
+22.5 +9.5 44 +24 +24 комфорт 1017.1 971.4 +27.0
18 11.06 В 2 10 км {ливн. осадки} 10/4 1500 м
[Cb cap Ac As]
+20.1 +11.5 58 +22 +22 комфорт 1017.0 971.0 +27.0 0.0
21 11.06 С 1 10 км 9/0
[Ac und Ci ing]
+15.3 +11.0 76 +16 +16 1017.6 970.9
00 12.06 СВ 1 10 км 9/0
[Ci ing]
+14.4 +12.0 85 +15 +15 1018.3 971.3
03 12.06 штиль 0 10 км 9/0
[Ci ing]
+19.0 +12.2 65 +20 +28 1018.2 972.0
06 12.06 В 2 10 км ясно +24.0 +12.7 49 +26 +45 жарко 1016.2 970.9 +14.4 0.0
09 12.06 С 2 10 км ясно +24.4 +11.5 44 +26 +43 жарко 1013.2 968.0 +29.0
12 12.06 В 2 10 км ясно +28.4 +11.2 34 +29 +34 жарко 1013.4 969.0
15 12.06 С 2 10 км ясно +24.4 +11.5 44 +26 +26 жарко 1013.2 968.0 +29.0
18 12.06 СВ 2 10 км ясно +17.9 +12.5 71 +18 +18 1014.2 968.1 +29.0
21 12.06 СВ 2 10 км ясно +16.1 +12.1 77 +16 +16 1014.2 967.7
00 13.06 СВ 2 10 км ясно +14.7 +11.8 83 +14 +14 1014.1 967.3
03 13.06 В 2 10 км ясно +21.3 +12.1 56 +23 +31 комфорт 1013.0 967.3
06 13.06 СВ 2 10 км ясно +27.2 +10.3 35 +28 +47 жарко 1010.4 965.8 +14.7
12 13.06 В 1 10 км ясно +31.0 +8.2 24 +30 +36 жарко 1006.4 962.4
15 13.06 штиль 0 10 км ясно +24.2 +14.2 54 +27 +27 жарко 1006.9 962.0 +32.5
18 13.06 штиль 0 10 км ясно +19.1 +14.7 76 +20 +20 1006.9 961.2 +32.5
21 13.06 штиль 0 10 км ясно +16.7 +13.5 81 +17 +17 1007.2 961.0
00 14.06 штиль 0 10 км ясно +15.1 +13.1 88 +15 +15 1007.5 961.2
03 14.06 СВ 1 10 км 3/0
[Ci ing]
+22.5 +12.7 54 +25 +33 комфорт 1006.8 950.4
06 14.06 Ю 3 10 км 9/0
[Ci ing]
+29.2 +13.7 39 +31 +44 жарко 1005.0 960.9 +15.1
09 14.06 З 7 10 км 9/3 1500 м
[Cb cap Ac und Ci ing]
+31.6 +31.6 100 +64 +66 опасность
перегрева
1003.1 959.3 +35.0
12 14.06 ЮЗ 4 10 км 6/3 1000 м
[Cu med, cong Ci fib]
+33.6 +10.0 24 +33 +35 жарко 1002.1 958.7
15 14.06 З 7 10 км 9/3 1500 м
[Cb cap Ac und Ci ing]
+31.6 +31.6 100 +64 +64 опасность
перегрева
1003.1 959.3 +35.0
18 14.06 З 6 10 км 9/3 1500 м
[Cb cap Ac und Ci ing]
+26.2 +10.5 37 +27 +27 жарко 1005.2 910.5 +35.0
21 14.06 С 3 10 км 9/3 1500 м
[Cb cap Ac und Ci ing]
+22.5 +11.7 50 +25 +25 комфорт 1005.3 960.2
00 15.06 С 1 10 км 9/3 1500 м
[Cb cap Ac und Ci ing]
+19.2 +12.0 63 +21 +21 комфорт 1006.2 960.6
03 15.06 С 2 10 км 9/3 1500 м
[Cb cap Ac und Ci ing]
+23.5 +12.7 51 +26 +28 жарко 1006.5 961.4
06 15.06 СЗ 2 10 км 9/4 1500 м
[Cb cap Ac und Ci ing]
+28.0 +13.5 41 +30 +36 жарко 1006.4 962.1 +18.0
09 15.06 ЮЗ 5 10 км 9/3 1500 м
[Cb cap Ac und Ci ing]
+26.5 +10.5 37 +27 +31 жарко 1007.5 963.1
12 15.06 ЮЗ 6 10 км 9/0
[Ac und Ci ing]
+28.4 +10.4 33 +29 +30 жарко 1007.2 962.9
15 15.06 СЗ 2 10 км 9/0
[Ac und Ci ing]
+26.0 +10.3 37 +27 +27 жарко 1008.2 963.5 +30.0
18 15.06 С 1 10 км 9/0
[Ci ing]
+21.7 +10.4 49 +23 +23 комфорт 1009.4 963.9 +30.0
00 16.06 штиль 0 10 км 9/0
[Ci ing]
+16.9 +12.9 77 +17 +17 1010.5 964.4
03 16.06 С 1 10 км ясно +23.3 +11.7 48 +26 +34 жарко 1010.2 965.0
06 16.06 В 2 10 км ясно +28.6 +11.7 35 +29 +48 жарко 1008.9 964.5 +16.9
09 16.06 ЮЗ 2 10 км ясно +32.8 +11.3 27 +33 +50 жарко 1006.2 962.5
12 16.06 З 3 10 км ясно +34.0 +10.7 24 +33 +38 жарко 1004.7 961.3
15 16.06 ЮЗ 5 10 км ясно +29.2 +8.5 27 +29 +29 жарко 1005.5 961.3 +35.0
18 16.06 штиль 0 10 км 9/0
[Ci ing]
+23.8 +10.6 43 +25 +25 комфорт 1007.3 962.2 +35.0
21 16.06 С 91 10 км 9/0
[Ci ing]
+19.1 +11.9 63 +16 +16 1008.5 962.8
03 17.06 З 6 10 км 9/0
[Ac und Ci ing]
+22.7 +7.8 38 +24 +26 комфорт 1009.7 964.4
15 17.06 ЮЗ 1 10 км 1/0
[Ci ing]
+27.8 +9.8 32 +28 +28 жарко 1004.4 960.0 +34.0

 

Местоположение метеостанции Коканд (Ферганская область, Узбекистан): широта 40.55 долгота 70.95 высота над уровнем моря 499 м.

В архиве по умолчанию представлена погода в Коканде за последнюю неделю. Архивные данные за месяц целиком и за предыдущие месяцы, начиная с января 2011 года, Вы можете получить, выбрав интересующий диапазон дат из раскрывающегося списка и нажав кнопку "Ввод!".


*Определитесь, кто Вы:
робот инопланетянин человек

Внимание! Время в таблицах - всемирное. Для получения местного времени необходимо прибавить поправку, которая равна 5 ч.

Смотрите также архив погоды в соседних городах и на ближайших метеорологических станциях:

Погода в Папе (Намаганская область, Узбекистан) (39 км)
Погода в Юбилейной (Андижанская область, Узбекистан) (58 км)
Погода в Сарыканде (Андижанская область, Узбекистан) (66 км)
Погода в Фергане (Ферганская область, Узбекистан) (71 км)
Погода в Намангане (Намаганская область, Узбекистан) (71 км)
Погода в Камчике (Ташкентская область, Узбекистан) (72 км)
Погода в Ангрене (Ташкентская область, Узбекистан) (82 км)
Погода в Бозе (Андижанская область, Узбекистан) (83 км)
Погода в Куве (Ферганская область, Узбекистан) (94 км)
Погода в Дуканте (Ташкентская область, Узбекистан) (100 км)

Пояснения к столбцам:

Ветер - указаны скорость ветра в м/с - средняя за 10 мин, порывы в срок и между сроками (в фигурных скобках) и направление, откуда дует ветер: С - северный, СВ - северо-восточный, В - восточный, ЮВ - юго-восточный, Ю - южный, ЮЗ - юго-западный, З - западный, СЗ - северо-западный.
Видимость - горизонтальная дальность видимости в метрах или километрах. При видимости от 1 до 10 км при отсутствии осадков обычно наблюдается дымка, при ухудшении видимости до 1 км и менее - туман. В сухую погоду видимость может ухудшаться дымом, пылью или мглою.
Явления - указаны атмосферные явления, наблюдавшиеся в срок или в последний час перед сроком; фигурными скобками обозначены явления, наблюдавшиеся между сроками (за 1-3 часа до срока); квадратными скобками обозначены град или гололедные отложения с указанием их диаметра в мм.
Облачность - указаны через наклонную черту общая и нижняя облачность в баллах и высота нижней границы облаков в метрах; квадратными скобками обозначены формы облаков: Ci - перистые, Cs - перисто-слоистые, Cc - перисто-кучевые, Ac - высококучевые, As - высокослоистые, Sc - слоисто-кучевые, Ns - слоисто-дождевые, Cu - кучевые, Cb - кучево-дождевые. Подробнее классификацию облаков см. в Атласе облаков (PDF).
T - Температура воздуха - температура, измеренная на высоте 2 м над землей.
Td - Температура точки росы - температура, при понижении до которой содержащийся в воздухе водяной пар достигнет насыщения.
f - Относительная влажность воздуха - влажноcть воздуха, измеренная на высоте 2 м над землей.
Te - Эффективная температура - температура, которую ощущает одетый по сезону человек в тени. Характеристика душности погоды. При расчете учитывается влияние влажности воздуха и скорости ветра на теплоощущения человека.
Tes - Эффективная температура на солнце - температура, которую ощущает человек, с поправкой на солнечный нагрев. Характеристика знойности погоды. Зависит от высоты солнца над горизонтом, облачности и скорости ветра. Ночью, в пасмурную погоду, а также при ветре 12 м/с и более поправка равна нулю.
P - Атмосферное давление - приведенное к уровню моря атмосферное давление.
Po - Атмосферное давление - измеренное на уровне метеостанции атмосферное давление.
Tmin - Минимальная температура - минимум температуры воздуха на высоте 2 м над землей.
Tmax - Максимальная температура - максимум температуры воздуха на высоте 2 м над землей.
R - Количество осадков - Количество выпавших осадков за период времени, мм. При наведении курсора мыши на число - период времени, за который выпало указанное количество осадков.
R24 - Количество осадков - Количество выпавших осадков за 24 часа, мм.
S - Снежный покров - Высота снежного покрова, см. При наведении курсора мыши на число - состояние снежного покрова и степень покрытия местности в баллах.